GW5323 Weather Reports


Display with metric or nautical units.
time (UTC)temp
F
wind
direction
speed
MPH
gust
MPH
rain 1hr
in
rain 24hr
in
rain mn
in
humidity
%
barometer
mb
20260505011133 63 38 6.0 13.0 0.05 0.01 0.01 68 1011.4
20260505010633 64 98 3.0 6.0 0.00 0.00 0.00 54 1011.7
20260505010130 64 82 1.0 1.0 0.00 0.00 0.00 56 1011.3
20260505005626 64 154 0.0 2.0 0.00 0.00 0.00 55 1011.1
20260505005124 64 64 1.0 1.0 0.00 0.00 0.00 51 1011.0
20260505004621 65 125 1.0 2.0 0.00 0.00 0.00 51 1010.8
20260505004117 66 103 1.0 1.0 0.00 0.00 0.00 50 1010.9
20260505003615 66 112 0.0 1.0 0.00 0.00 0.00 49 1010.6
20260505003112 66 297 2.0 3.0 0.00 0.00 0.00 47 1010.8
20260505002608 66 84 3.0 3.0 0.00 0.00 0.00 48 1010.8
20260505002107 66 156 0.0 3.0 0.00 0.00 0.00 47 1010.7
20260505001603 66 72 3.0 4.0 0.00 0.00 0.00 47 1010.6
20260505001101 67 193 0.0 2.0 0.00 0.00 0.00 47 1010.7
20260505000558 67 31 3.0 4.0 0.00 0.00 0.00 45 1010.7
20260505000055 68 48 2.0 4.0 0.00 0.00 0.00 45 1010.6
20260504235552 68 41 3.0 4.0 0.00 0.00 0.00 45 1010.6
20260504235049 68 287 2.0 9.0 0.00 0.00 0.00 43 1010.5
20260504234545 69 70 4.0 6.0 0.00 0.00 0.00 44 1010.5
20260504234043 69 60 4.0 4.0 0.00 0.00 0.00 47 1010.4
20260504233538 71 26 2.0 3.0 0.00 0.00 0.00 45 1010.4
20260504233035 72 91 5.0 5.0 0.00 0.00 0.00 43 1010.3
20260504232532 73 147 1.0 2.0 0.00 0.00 0.00 44 1010.1
20260504232030 72 238 2.0 6.0 0.00 0.00 0.00 44 1010.1
20260504231526 72 50 4.0 5.0 0.00 0.00 0.00 44 1010.1
20260504231022 71 125 2.0 4.0 0.00 0.00 0.00 45 1010.1
20260504230519 72 36 2.0 7.0 0.00 0.00 0.00 45 1009.9
20260504230018 73 357 2.0 4.0 0.00 0.00 0.00 44 1009.8
20260504225514 72 337 2.0 7.0 0.00 0.00 0.00 45 1009.9
20260504225011 71 44 5.0 9.0 0.00 0.00 0.00 43 1009.8
20260504224508 72 9 2.0 7.0 0.00 0.00 0.00 43 1009.9
20260504224005 72 42 5.0 10.0 0.00 0.00 0.00 43 1010.1
20260504223501 73 12 4.0 5.0 0.00 0.00 0.00 43 1009.8
20260504222957 71 60 5.0 6.0 0.00 0.00 0.00 44 1009.9
20260504222455 73 329 2.0 13.0 0.00 0.00 0.00 44 1009.9
20260504221952 73 35 5.0 16.0 0.00 0.00 0.00 43 1010.1
20260504221449 73 42 7.0 11.0 0.00 0.00 0.00 43 1009.8
20260504220946 72 86 5.0 11.0 0.00 0.00 0.00 42 1009.8
20260504220442 72 31 0.0 14.0 0.00 0.00 0.00 43 1009.8
20260504215939 76 62 2.0 5.0 0.00 0.00 0.00 40 1009.8
20260504215436 75 330 5.0 15.0 0.00 0.00 0.00 39 1009.8
20260504214933 74 355 2.0 6.0 0.00 0.00 0.00 43 1009.7
20260504214429 74 24 3.0 15.0 0.00 0.00 0.00 42 1009.6
20260504213926 75 68 6.0 10.0 0.00 0.00 0.00 39 1009.7
20260504213422 75 249 3.0 6.0 0.00 0.00 0.00 37 1009.8
20260504212920 75 200 4.0 11.0 0.00 0.00 0.00 38 1009.5
20260504212415 76 97 3.0 4.0 0.00 0.00 0.00 37 1009.6
20260504211913 76 299 2.0 8.0 0.00 0.00 0.00 37 1009.6
20260504211409 75 122 0.0 2.0 0.00 0.00 0.00 41 1009.7
20260504210906 76 152 3.0 6.0 0.00 0.00 0.00 38 1009.7
20260504210403 75 53 3.0 4.0 0.00 0.00 0.00 39 1009.7
20260504205900 75 64 4.0 6.0 0.00 0.00 0.00 39 1009.9
20260504205358 75 26 10.0 13.0 0.00 0.00 0.00 36 1009.9
20260504204856 75 335 3.0 8.0 0.00 0.00 0.00 37 1010.2
20260504204354 75 45 6.0 9.0 0.00 0.00 0.00 40 1009.8
20260504203854 74 34 7.0 13.0 0.00 0.00 0.00 37 1010.2
20260504203350 75 77 2.0 9.0 0.00 0.00 0.00 37 1010.2
20260504202846 75 58 2.0 9.0 0.00 0.00 0.00 39 1010.3
20260504202343 74 52 5.0 10.0 0.00 0.00 0.00 38 1010.2
20260504201839 74 64 6.0 14.0 0.00 0.00 0.00 39 1010.2
20260504201337 75 55 7.0 12.0 0.00 0.00 0.00 39 1010.4
20260504200834 75 53 4.0 6.0 0.00 0.00 0.00 41 1010.4
20260504200331 73 54 2.0 11.0 0.00 0.00 0.00 39 1010.5
20260504195827 75 85 4.0 7.0 0.00 0.00 0.00 36 1010.6
20260504195323 72 78 2.0 11.0 0.00 0.00 0.00 43 1010.5
20260504194820 73 46 2.0 6.0 0.00 0.00 0.00 38 1010.5
20260504194316 73 37 8.0 11.0 0.00 0.00 0.00 37 1010.6
20260504193812 74 14 8.0 16.0 0.00 0.00 0.00 38 1010.7
20260504193310 72 16 5.0 14.0 0.00 0.00 0.00 37 1010.7
20260504192808 74 126 4.0 5.0 0.00 0.00 0.00 36 1010.8
20260504192306 73 72 11.0 15.0 0.00 0.00 0.00 34 1010.9
20260504191804 73 29 2.0 4.0 0.00 0.00 0.00 38 1011.0
20260504191301 72 353 3.0 16.0 0.00 0.00 0.00 35 1011.0
20260504190756 73 63 9.0 14.0 0.00 0.00 0.00 36 1011.0
20260504190253 74 47 3.0 7.0 0.00 0.00 0.00 38 1010.9
20260504185749 74 209 6.0 10.0 0.00 0.00 0.00 39 1011.3
20260504185246 73 276 0.0 10.0 0.00 0.00 0.00 41 1011.3
20260504184742 73 75 6.0 8.0 0.00 0.00 0.00 39 1011.3
20260504184238 74 38 8.0 11.0 0.00 0.00 0.00 36 1011.3
20260504183734 73 273 1.0 6.0 0.00 0.00 0.00 36 1011.3
20260504183232 72 21 3.0 11.0 0.00 0.00 0.00 42 1011.4
20260504182730 72 313 2.0 6.0 0.00 0.00 0.00 40 1011.8
20260504182226 71 44 6.0 14.0 0.00 0.00 0.00 38 1011.7
20260504181724 71 63 6.0 17.0 0.00 0.00 0.00 38 1011.8
20260504181221 70 40 3.0 6.0 0.00 0.00 0.00 41 1011.9
20260504180720 73 269 4.0 5.0 0.00 0.00 0.00 41 1011.8
20260504180219 72 311 2.0 9.0 0.00 0.00 0.00 39 1011.8
20260504175716 71 63 4.0 16.0 0.00 0.00 0.00 41 1012.0
20260504175212 72 149 4.0 14.0 0.00 0.00 0.00 40 1011.9
20260504174710 70 282 4.0 15.0 0.00 0.00 0.00 39 1012.1
20260504174208 71 261 2.0 9.0 0.00 0.00 0.00 40 1012.2
20260504173704 72 346 6.0 6.0 0.00 0.00 0.00 38 1012.2
20260504173202 69 71 2.0 4.0 0.00 0.00 0.00 44 1012.2
20260504172658 71 73 5.0 14.0 0.00 0.00 0.00 42 1012.5
20260504172154 71 87 3.0 12.0 0.00 0.00 0.00 40 1012.5
20260504171650 69 302 3.0 17.0 0.00 0.00 0.00 45 1012.5
20260504171148 69 238 2.0 13.0 0.00 0.00 0.00 40 1012.6
20260504170644 70 300 5.0 10.0 0.00 0.00 0.00 43 1012.8
20260504170142 69 264 3.0 13.0 0.00 0.00 0.00 43 1013.0
20260504151028 65 57 4.0 5.0 0.00 0.00 0.00 48 1014.5
20260504150525 64 302 1.0 5.0 0.00 0.00 0.00 49 1014.5
20260504140956 60 283 0.0 4.0 0.00 0.00 0.00 50 1015.0
20260504140453 59 57 5.0 6.0 0.00 0.00 0.00 50 1014.9
20260504130417 51 16 5.0 5.0 0.00 0.00 0.00 65 1015.2
20260504110304 32 243 0.0 2.0 0.00 0.00 0.00 99 1015.8
20260504100222 30 263 0.0 2.0 0.00 0.00 0.00 99 1015.6
20260504081615 29 248 2.0 2.0 0.00 0.00 0.00 99 1016.1
20260504081111 29 240 2.0 2.0 0.00 0.00 0.00 99 1016.0
20260504080608 29 275 1.0 2.0 0.00 0.00 0.00 99 1016.4
20260504080104 29 229 1.0 2.0 0.00 0.00 0.00 99 1016.1
20260504050421 32 235 0.0 0.0 0.00 0.00 0.00 96 1016.9
20260504045918 32 235 0.0 0.0 0.00 0.00 0.00 96 1016.9
20260504045413 32 235 0.0 0.0 0.00 0.00 0.00 96 1016.8
20260504044910 32 235 0.0 0.0 0.00 0.00 0.00 96 1017.0
20260504044408 32 235 0.0 0.0 0.00 0.00 0.00 96 1016.9
20260504043905 32 260 1.0 1.0 0.00 0.00 0.00 96 1016.9
20260504043401 32 227 0.0 1.0 0.00 0.00 0.00 96 1016.9
20260504042859 32 243 0.0 0.0 0.00 0.00 0.00 95 1016.7
20260504042355 32 283 0.0 0.0 0.00 0.00 0.00 95 1016.7
20260504041851 32 15 0.0 0.0 0.00 0.00 0.00 94 1016.8
20260504041348 33 117 1.0 2.0 0.00 0.00 0.00 94 1016.8
20260504040844 33 117 1.0 2.0 0.00 0.00 0.00 94 1016.7
20260504040342 33 117 1.0 2.0 0.00 0.00 0.00 94 1016.9
20260504035837 33 117 1.0 2.0 0.00 0.00 0.00 94 1016.9
20260504035336 34 315 0.0 0.0 0.00 0.00 0.00 94 1016.8
20260504034832 33 212 0.0 1.0 0.00 0.00 0.00 93 1016.7
20260504034330 33 193 0.0 0.0 0.00 0.00 0.00 93 1016.7
20260504033827 34 104 0.0 0.0 0.00 0.00 0.00 93 1016.6
20260504033325 34 221 0.0 0.0 0.00 0.00 0.00 93 1016.7
20260504032821 34 296 1.0 2.0 0.00 0.00 0.00 92 1016.9
20260504032318 35 339 0.0 0.0 0.00 0.00 0.00 92 1016.9
20260504031815 35 339 0.0 0.0 0.00 0.00 0.00 92 1016.8
20260504031312 35 340 0.0 1.0 0.00 0.00 0.00 90 1016.6
20260504030808 35 340 0.0 1.0 0.00 0.00 0.00 90 1016.8
20260504030306 35 340 0.0 1.0 0.00 0.00 0.00 90 1016.6
20260504025801 36 260 0.0 1.0 0.00 0.00 0.00 90 1016.9
20260504025259 36 260 0.0 1.0 0.00 0.00 0.00 90 1016.7
20260504024755 36 260 0.0 1.0 0.00 0.00 0.00 90 1016.7
20260504024252 36 326 0.0 2.0 0.00 0.00 0.00 89 1016.9
20260504023749 37 269 0.0 0.0 0.00 0.00 0.00 83 1016.7
20260504023245 37 269 0.0 0.0 0.00 0.00 0.00 83 1016.7
20260504022741 37 269 0.0 0.0 0.00 0.00 0.00 83 1016.8
20260504022237 37 269 0.0 0.0 0.00 0.00 0.00 83 1016.9
20260504021735 37 269 0.0 0.0 0.00 0.00 0.00 83 1016.9
20260504021232 37 269 0.0 0.0 0.00 0.00 0.00 83 1016.7
20260504020729 38 135 0.0 0.0 0.00 0.00 0.00 82 1016.7
20260504020226 38 135 0.0 0.0 0.00 0.00 0.00 82 1016.7
20260504015722 39 293 0.0 0.0 0.00 0.00 0.00 79 1016.6
20260504015218 39 293 0.0 0.0 0.00 0.00 0.00 78 1016.6
20260504014714 40 291 0.0 0.0 0.00 0.00 0.00 77 1016.5
20260504014212 41 256 0.0 0.0 0.00 0.00 0.00 76 1016.5
20260504013709 41 252 0.0 0.0 0.00 0.00 0.00 74 1016.4
20260504013206 41 252 0.0 0.0 0.00 0.00 0.00 74 1016.5
20260504012703 41 212 0.0 0.0 0.00 0.00 0.00 73 1016.6
20260504012201 42 130 0.0 1.0 0.00 0.00 0.00 70 1016.5
20260504011657 43 245 0.0 0.0 0.00 0.00 0.00 67 1016.4